This demonstration page uses our WeatherBlox Daily Observations layout. Learn more.

Left ArrowRight Arrow

39.01783, -85.05884

Hourly Observations for October 13, 2015

Temp ( °F °C ) Dew Point ( °F °C ) Humidity (%) Winds ( mph kmh ) Pressure ( in mb ) Visibility ( mi km ) Precip ( " mm )
12:52 am 00:52 Mostly Cloudy with Mist and Fog 63 17.2 61 16.1 93 93 SW 9 15 29.60 1002 5 8 N/A
1:32 am 01:32 Mostly Clear with Mist and Fog 63 17 61 16 94 94 SW 7 11 29.59 1002 4 6 N/A
1:52 am 01:52 Mostly Clear with Mist and Fog 62 16.7 60 15.6 93 93 SW 8 13 29.60 1003 4 6 N/A
2:52 am 02:52 Clear with Mist and Fog 60 15.6 58 14.4 93 93 SW 5 7 29.61 1003 6 10 N/A
3:52 am 03:52 Clear 58 14.4 56 13.3 93 93 SW 6 9 29.60 1002 7 11 N/A
4:52 am 04:52 Clear 57 13.9 55 12.8 93 93 SSW 8 13 29.59 1002 8 13 N/A
5:52 am 05:52 Clear 56 13.3 54 12.2 93 93 SSW 7 11 29.60 1002 9 14 N/A
6:52 am 06:52 Clear 55 12.8 51 10.6 87 87 SW 6 9 29.62 1003 10 16 N/A
7:52 am 07:52 Sunny 55 12.8 49 9.4 80 80 WSW 8 13 29.64 1004 10 16 N/A
8:52 am 08:52 Sunny 55 12.8 49 9.4 80 80 W 10 17 29.66 1004 10 16 N/A
9:52 am 09:52 Sunny 57 13.9 48 8.9 72 72 W 14 22 29.68 1005 10 16 N/A
10:52 am 10:52 Cloudy 57 13.9 45 7.2 64 64 WNW 21 33 29.70 1006 10 16 N/A
11:52 am 11:52 Mostly Cloudy 58 14.4 44 6.7 60 60 W 18 30 29.71 1006 10 16 N/A
12:52 pm 12:52 Mostly Cloudy 59 15 45 7.2 60 60 W 15 24 29.73 1007 10 16 N/A
1:52 pm 13:52 Mostly Cloudy 59 15 44 6.7 58 58 WNW 14 22 29.73 1007 10 16 N/A
2:52 pm 14:52 Mostly Cloudy 62 16.7 45 7.2 54 54 W 13 20 29.73 1007 10 16 N/A
3:52 pm 15:52 Mostly Cloudy 63 17.2 45 7.2 52 52 W 14 22 29.74 1007 10 16 N/A
4:52 pm 16:52 Cloudy 60 15.6 45 7.2 58 58 WSW 9 15 29.77 1008 10 16 N/A
5:52 pm 17:52 Cloudy 60 15.6 45 7.2 58 58 W 8 13 29.78 1008 10 16 N/A
6:52 pm 18:52 Cloudy 59 15 46 7.8 62 62 SW 3 6 29.79 1009 10 16 N/A
7:52 pm 19:52 Cloudy 57 13.9 46 7.8 67 67 SSW 5 7 29.81 1009 10 16 N/A
8:52 pm 20:52 Cloudy 56 13.3 46 7.8 70 70 SW 5 7 29.83 1010 10 16 N/A
9:52 pm 21:52 Mostly Cloudy 57 13.9 46 7.8 67 67 N N/A 29.84 1011 10 16 N/A
10:52 pm 22:52 Partly Cloudy 54 12.2 46 7.8 75 75 WSW 3 6 29.85 1011 10 16 N/A
11:52 pm 23:52 Clear 52 11.1 46 7.8 80 80 W 5 7 29.87 1011 10 16 N/A

Powered by AerisWeather